Regional Weather Roundup
Issued by NWS

Home | Current Version | Previous Version | Text Only | Print | Product List | Glossary Off
Versions: 1 2 3 4 5 6 7 8 9 10 11 12 13 14 15 16 17 18 19 20 21 22 23 24 25 26 27 28 29 30 31 32 33 34 35 36 37 38 39 40 41 42 43 44 45 46 47 48 49 50

333
ASUS44 KJAN 280010
RWRMS

MISSISSIPPI HOURLY WEATHER ROUNDUP
NATIONAL WEATHER SERVICE JACKSON MS
600 PM CST THU NOV 27 2014

NOTE: "FAIR: INDICATES FEW OR NO CLOUDS BELOW 12,000 FEET WITH NO
SIGNIFICANT WEATHER AND/OR OBSTRUCTIONS TO VISIBILITY.

MSZ001>002-007>008-010>013-018>021-025>028-034>036-280100-
NORTHWEST MISSISSIPPI

CITY           SKY/WX    TMP DP  RH WIND       PRES   REMARKS
CLARKSDALE     FAIR      39  32  75 CALM      30.49S
CLEVELAND      FAIR      39  33  80 CALM      30.48S
GREENWOOD      CLEAR     39  32  76 CALM      30.48S
6HR MIN TEMP:  38; 6HR MAX TEMP:  48;

GREENVILLE     CLEAR     40  32  73 E5        30.47F
6HR MIN TEMP:  40; 6HR MAX TEMP:  48;

GRENADA        FAIR      36  32  87 CALM      30.48S
OLIVE BRANCH   PTCLDY    36  30  80 CALM      30.48S
OXFORD         FAIR      32  28  86 CALM      30.49R
TUNICA         CLEAR     37  34  87 CALM      30.50R
$$

MSZ003>006-009-014>017-022>024-029>033-037>039-280100-
NORTHEAST MISSISSIPPI

CITY           SKY/WX    TMP DP  RH WIND       PRES   REMARKS
COLUMBUS AFB   CLEAR     36  28  72 NW3       30.47S
6HR MIN TEMP:  36; 6HR MAX TEMP:  44;

CORINTH        MOCLDY    37  27  65 NW3       30.48R
GOLDN TRIANGLE PTCLDY    37  28  70 CALM      30.46S
STARKVILLE       N/A     34  30  86 CALM      30.47S
TUPELO         CLEAR     37  27  67 NE5       30.48R WCI  33
6HR MIN TEMP:  36; 6HR MAX TEMP:  45;

$$

MSZ040-058-280100-
CENTRAL MISSISSIPPI

CITY           SKY/WX    TMP DP  RH WIND       PRES   REMARKS
JACKSON INTL   CLEAR     39  30  70 N7        30.46F WCI  34
6HR MIN TEMP:  39; 6HR MAX TEMP:  52;

JACKSON HAWKNS CLEAR     42  30  62 N3        30.47S
6HR MIN TEMP:  42; 6HR MAX TEMP:  51;

MERIDIAN KEY   CLEAR     38  31  76 NW5       30.46R WCI  34
6HR MIN TEMP:  38; 6HR MAX TEMP:  52;

MERIDIAN NAS   CLEAR     41  31  67 N7        30.47R
6HR MIN TEMP:  41; 6HR MAX TEMP:  51;

RAYMOND        FAIR      41  36  81 MISG      30.47S
VICKSBURG      CLEAR     40  31  70 NE7       30.48S
6HR MIN TEMP:  39; 6HR MAX TEMP:  51;

$$

MSZ059>079-280100-
SOUTH MISSISSIPPI

CITY           SKY/WX    TMP DP  RH WIND       PRES   REMARKS
BROOKHAVEN     FAIR      43  32  65 CALM      30.46S
HATTIESBURG    CLEAR     48  32  53 N5        30.45R
6HR MIN TEMP:  46; 6HR MAX TEMP:  57;

MCCOMB         CLEAR     49  29  46 N5        30.44R
6HR MIN TEMP:  49; 6HR MAX TEMP:  57;

NATCHEZ        CLEAR     45  30  57 N8        30.46F
6HR MIN TEMP:  45; 6HR MAX TEMP:  54;

PINE BELT      CLEAR     43  30  61 N6        30.45S
6HR MIN TEMP:  43; 6HR MAX TEMP:  55;

$$

MSZ080>082-280100-
COASTAL MISSISSIPPI

CITY           SKY/WX    TMP DP  RH WIND       PRES   REMARKS
BAY ST LOUIS   CLEAR     46  32  57 MISG      30.43R
BILOXI         CLEAR     51  33  49 VRB5      30.41R
6HR MIN TEMP:  51; 6HR MAX TEMP:  60;

PASCAGOULA     CLEAR     47  31  53 N5        30.42R
6HR MIN TEMP:  47; 6HR MAX TEMP:  61;

GULFPORT       CLEAR     51  32  48 N7        30.41R
6HR MIN TEMP:  51; 6HR MAX TEMP:  60;

$$



USA.gov is the U.S. government's official web portal to all federal, state and local government web resources and services.